WA6MEM Weather Reports


time (UTC)temp
F
wind
direction
speed
knots
gust
knots
rain 1hr
in
rain 24hr
in
rain mn
in
humidity
%
barometer
mb
20260505124558 51 252 2.6 0.0 0.00 0.00 0.00 93 1012.0
20260505124058 51 297 2.6 0.0 0.00 0.00 0.00 93 1012.0
20260505123556 50 329 2.6 0.0 0.00 0.00 0.00 93 1012.0
20260505123105 51 239 3.5 0.0 0.00 0.00 0.00 93 1012.0
20260505122559 51 246 3.5 0.0 0.00 0.00 0.00 94 1012.0
20260505122056 51 285 3.5 0.0 0.00 0.00 0.00 94 1012.0
20260505121556 50 257 3.5 0.0 0.00 0.00 0.00 94 1012.0
20260505121056 50 271 3.5 0.0 0.00 0.00 0.00 94 1012.0
20260505120556 50 270 3.5 0.0 0.00 0.00 0.00 94 1012.0
20260505120057 50 265 3.5 0.0 0.00 0.00 0.00 94 1012.0
20260505115558 50 254 2.6 0.0 0.00 0.00 0.00 94 1011.9
20260505115055 51 271 3.5 0.0 0.00 0.00 0.00 94 1011.9
20260505114554 51 264 3.5 0.0 0.00 0.00 0.00 94 1011.9
20260505114059 51 251 3.5 0.0 0.00 0.00 0.00 94 1011.8
20260505113556 51 267 2.6 0.0 0.00 0.00 0.00 94 1011.8
20260505113059 51 318 2.6 0.0 0.00 0.00 0.00 94 1011.8
20260505112553 51 300 2.6 0.0 0.00 0.00 0.00 94 1011.9
20260505112053 51 300 2.6 0.0 0.00 0.00 0.00 94 1011.9
20260505111557 51 304 3.5 0.0 0.00 0.00 0.00 94 1011.9
20260505111053 51 292 3.5 0.0 0.00 0.00 0.00 93 1011.9
20260505110552 51 231 2.6 0.0 0.00 0.00 0.00 93 1011.9
20260505102046 51 296 3.5 0.0 0.00 0.00 0.00 94 1011.9
20260505101546 51 280 2.6 0.0 0.00 0.00 0.00 94 1011.9
20260505101048 51 319 1.7 0.0 0.00 0.00 0.00 94 1012.0
20260505100545 51 321 2.6 0.0 0.00 0.00 0.00 94 1012.0
20260505100050 51 332 2.6 0.0 0.00 0.00 0.00 94 1012.0
20260505095546 51 286 2.6 0.0 0.00 0.00 0.00 94 1012.2
20260505095042 51 291 2.6 0.0 0.00 0.00 0.00 94 1012.2
20260505094543 51 273 3.5 0.0 0.00 0.00 0.00 94 1012.2
20260505094042 51 274 2.6 0.0 0.00 0.00 0.00 94 1012.3
20260505093543 51 250 3.5 0.0 0.00 0.00 0.00 94 1012.3
20260505093043 51 298 3.5 0.0 0.00 0.00 0.00 94 1012.3
20260505092542 51 324 4.3 0.0 0.00 0.00 0.00 94 1012.4
20260505092040 51 311 4.3 0.0 0.00 0.00 0.00 94 1012.4
20260505091552 51 295 3.5 0.0 0.00 0.00 0.00 94 1012.4
20260505091042 52 304 3.5 0.0 0.00 0.00 0.00 94 1012.6
20260505090542 52 298 2.6 0.0 0.00 0.00 0.00 94 1012.6
20260505090051 52 304 1.7 0.0 0.00 0.00 0.00 94 1012.6
20260505085538 52 267 1.7 0.0 0.00 0.00 0.00 94 1012.6
20260505085037 52 280 1.7 0.0 0.00 0.00 0.00 94 1012.6
20260505084538 52 302 1.7 0.0 0.00 0.00 0.00 94 1012.6
20260505084036 52 308 1.7 0.0 0.00 0.00 0.00 94 1012.9
20260505083537 52 281 1.7 0.0 0.00 0.00 0.00 94 1012.9
20260505083042 52 286 1.7 0.0 0.00 0.00 0.00 94 1012.9
20260505082535 52 267 1.7 0.0 0.00 0.00 0.00 94 1012.9
20260505082035 52 291 1.7 0.0 0.00 0.00 0.00 94 1012.9
20260505081550 52 288 1.7 0.0 0.00 0.00 0.00 94 1012.9
20260505081035 52 295 1.7 0.0 0.00 0.00 0.00 94 1012.8
20260505080539 52 317 1.7 0.0 0.00 0.00 0.00 94 1012.8
20260505080042 52 288 1.7 0.0 0.00 0.00 0.00 94 1012.8
20260505075534 53 272 0.9 0.0 0.00 0.00 0.00 94 1012.9
20260505075033 53 238 0.9 0.0 0.00 0.00 0.00 94 1012.9
20260505074538 53 188 0.9 0.0 0.00 0.00 0.00 94 1012.9
20260505074034 53 188 0.9 0.0 0.00 0.00 0.00 94 1013.0
20260505073534 53 227 0.9 0.0 0.00 0.00 0.00 94 1013.0
20260505073032 52 229 1.7 0.0 0.00 0.00 0.00 94 1013.0
20260505072531 52 291 1.7 0.0 0.00 0.00 0.00 94 1013.0
20260505072031 52 306 1.7 0.0 0.00 0.00 0.00 94 1013.0
20260505071531 52 291 1.7 0.0 0.00 0.00 0.00 94 1013.0
20260505071031 52 296 1.7 0.0 0.00 0.00 0.00 94 1013.1
20260505070531 52 280 1.7 0.0 0.00 0.00 0.00 94 1013.1
20260505070031 52 297 1.7 0.0 0.00 0.00 0.01 94 1013.1
20260505065530 52 281 1.7 0.0 0.00 0.00 0.01 94 1013.1
20260505065030 52 265 1.7 0.0 0.00 0.00 0.01 94 1013.1
20260505064530 52 277 1.7 0.0 0.00 0.00 0.01 94 1013.1
20260505064029 52 284 1.7 0.0 0.00 0.00 0.01 94 1013.1
20260505063529 52 290 0.9 0.0 0.00 0.00 0.00 94 1013.1
20260505063035 52 189 0.0 0.0 0.00 0.00 0.00 94 1013.1
20260505062529 52 185 0.0 0.0 0.00 0.00 0.00 94 1013.2
20260505062029 52 171 0.0 0.0 0.00 0.00 0.00 94 1013.2
20260505061533 52 171 0.0 0.0 0.00 0.00 0.00 94 1013.2
20260505061029 52 216 0.0 0.0 0.00 0.00 0.00 94 1013.3
20260505060528 52 216 0.9 0.0 0.00 0.00 0.00 94 1013.3
20260505060030 52 158 1.7 0.0 0.00 0.00 0.00 94 1013.3
20260505055527 52 277 2.6 0.0 0.00 0.00 0.00 94 1013.3
20260505055029 52 258 2.6 0.0 0.00 0.00 0.00 94 1013.3
20260505054530 52 277 2.6 0.0 0.00 0.00 0.00 94 1013.3
20260505054027 52 285 1.7 0.0 0.00 0.00 0.00 94 1013.4
20260505053527 53 290 0.9 0.0 0.00 0.00 0.00 94 1013.4
20260505053026 53 184 0.9 0.0 0.00 0.00 0.00 94 1013.4
20260505052526 53 271 0.9 0.0 0.00 0.00 0.00 94 1013.4
20260505052027 53 292 0.9 0.0 0.00 0.00 0.00 94 1013.4
20260505051529 53 202 0.9 0.0 0.00 0.00 0.00 94 1013.4
20260505051029 53 205 0.9 0.0 0.00 0.00 0.00 94 1013.5
20260505050527 53 227 0.9 0.0 0.00 0.00 0.00 94 1013.5
20260505041525 52 201 0.9 0.0 0.00 0.00 0.00 94 1013.6
20260505041025 52 212 0.9 0.0 0.00 0.00 0.00 94 1013.7
20260505040525 52 175 0.9 0.0 0.00 0.00 0.00 94 1013.7
20260505040025 52 165 0.9 0.0 0.00 0.00 0.00 94 1013.7
20260505035523 52 174 0.9 0.0 0.00 0.00 0.00 94 1013.6
20260505035023 52 195 0.9 0.0 0.00 0.00 0.00 94 1013.6
20260505034523 52 196 1.7 0.0 0.00 0.00 0.00 94 1013.6
20260505034024 52 165 0.9 0.0 0.00 0.00 0.00 94 1013.6
20260505033526 52 192 0.9 0.0 0.00 0.00 0.00 94 1013.6
20260505033033 52 151 0.9 0.0 0.00 0.00 0.00 94 1013.6
20260505032524 52 201 1.7 0.0 0.00 0.00 0.00 94 1013.5
20260505032024 52 194 1.7 0.0 0.00 0.00 0.00 94 1013.5
20260505031523 52 178 2.6 0.0 0.00 0.00 0.00 94 1013.5
20260505031023 53 213 2.6 0.0 0.00 0.00 0.00 94 1013.3
20260505030523 53 193 2.6 0.0 0.00 0.00 0.00 94 1013.3
20260505030023 53 176 2.6 0.0 0.00 0.00 0.00 94 1013.3
20260505025527 53 184 2.6 0.0 0.00 0.00 0.00 93 1013.4
20260505025021 53 157 2.6 0.0 0.00 0.00 0.00 93 1013.4
20260505024546 53 176 3.5 0.0 0.00 0.00 0.00 93 1013.4
20260505024021 53 203 3.5 0.0 0.00 0.00 0.00 93 1013.4
20260505023521 53 219 3.5 0.0 0.00 0.00 0.00 93 1013.4
20260505023023 53 185 3.5 0.0 0.00 0.00 0.00 93 1013.4
20260505022522 53 196 3.5 0.0 0.00 0.00 0.00 93 1013.4
20260505022021 53 151 3.5 0.0 0.00 0.00 0.00 92 1013.4
20260505021541 54 205 4.3 0.0 0.00 0.00 0.00 92 1013.4
20260505021020 54 161 4.3 0.0 0.00 0.00 0.00 91 1013.5
20260505020521 54 185 3.5 0.0 0.00 0.00 0.00 91 1013.5
20260505020021 54 166 3.5 0.0 0.00 0.00 0.00 90 1013.5
20260505015523 54 167 3.5 0.0 0.00 0.00 0.00 90 1013.4
20260505015020 55 150 3.5 0.0 0.00 0.00 0.00 89 1013.4
20260505014525 55 180 3.5 0.0 0.00 0.00 0.00 88 1013.4
20260505014022 55 192 2.6 0.0 0.00 0.00 0.00 88 1013.3
20260505013519 55 199 2.6 0.0 0.00 0.00 0.00 87 1013.3
20260505013019 56 175 2.6 0.0 0.00 0.00 0.00 86 1013.3
20260505012522 56 162 2.6 0.0 0.00 0.00 0.00 85 1013.3
20260505012019 56 181 3.5 0.0 0.00 0.00 0.00 83 1013.3
20260505011526 57 214 3.5 0.0 0.00 0.00 0.00 82 1013.3
20260505011018 57 165 3.5 0.0 0.00 0.00 0.00 80 1013.3
20260505010518 58 228 2.6 0.0 0.00 0.00 0.00 79 1013.3
20260505010019 58 163 2.6 0.0 0.00 0.00 0.00 79 1013.3
20260505005518 58 190 3.5 0.0 0.00 0.00 0.00 79 1013.4
20260505005018 58 189 2.6 0.0 0.00 0.00 0.00 80 1013.4
20260505004529 58 162 2.6 0.0 0.00 0.00 0.00 80 1013.4
20260505004017 58 167 2.6 0.0 0.00 0.00 0.00 80 1013.5
20260505003517 57 192 3.5 0.0 0.00 0.00 0.00 78 1013.5
20260505003017 58 144 3.5 0.0 0.00 0.00 0.00 77 1013.5
20260505002517 58 207 3.5 0.0 0.00 0.00 0.00 78 1013.5
20260505002017 58 195 3.5 0.0 0.00 0.00 0.00 79 1013.5
20260505001517 58 207 3.5 0.0 0.00 0.00 0.00 80 1013.5
20260505001018 58 186 4.3 0.0 0.00 0.00 0.00 82 1013.5
20260505000519 57 169 3.5 0.0 0.00 0.00 0.00 82 1013.5
20260505000019 57 200 3.5 0.0 0.00 0.00 0.00 80 1013.5
20260504235516 57 213 4.3 0.0 0.00 0.00 0.00 81 1013.5
20260504235019 57 173 4.3 0.0 0.00 0.00 0.00 82 1013.5
20260504234518 57 174 4.3 0.0 0.00 0.00 0.00 83 1013.5
20260504234017 57 165 4.3 0.0 0.00 0.00 0.00 81 1013.4
20260504233516 58 200 5.2 0.0 0.00 0.00 0.00 78 1013.4
20260504233016 58 140 5.2 0.0 0.00 0.00 0.00 78 1013.4
20260504232516 58 196 5.2 0.0 0.00 0.00 0.00 79 1013.1
20260504232015 59 177 5.2 0.0 0.00 0.00 0.00 76 1013.1
20260504231515 60 136 4.3 0.0 0.00 0.00 0.00 75 1013.1
20260504231017 60 254 4.3 0.0 0.00 0.00 0.00 77 1013.1
20260504230515 60 161 5.2 0.0 0.00 0.00 0.00 76 1013.1
20260504230015 60 188 5.2 0.0 0.00 0.00 0.00 75 1013.1
20260504225517 61 184 5.2 0.0 0.00 0.00 0.00 76 1013.3
20260504225015 60 230 4.3 0.0 0.00 0.00 0.00 78 1013.3
20260504224513 60 175 4.3 0.0 0.00 0.00 0.00 78 1013.3
20260504224014 60 195 6.1 0.0 0.00 0.00 0.00 79 1013.5
20260504223514 60 194 5.2 0.0 0.00 0.00 0.00 79 1013.5
20260504223014 60 175 5.2 0.0 0.00 0.00 0.00 81 1013.5
20260504222514 60 179 5.2 0.0 0.00 0.00 0.00 80 1013.8
20260504222014 60 147 6.1 0.0 0.00 0.00 0.00 81 1013.8
20260504221513 60 234 5.2 0.0 0.00 0.00 0.00 80 1013.8
20260504221013 60 168 4.3 0.0 0.00 0.00 0.00 80 1014.0
20260504220517 60 360 5.2 0.0 0.00 0.00 0.00 79 1014.0
20260504220018 60 236 6.1 0.0 0.00 0.00 0.00 82 1014.0
20260504215512 59 279 5.2 0.0 0.00 0.00 0.00 81 1014.3
20260504215013 59 171 4.3 0.0 0.00 0.00 0.00 82 1014.3
20260504214512 59 233 4.3 0.0 0.00 0.00 0.00 82 1014.3
20260504214013 59 211 5.2 0.0 0.00 0.00 0.00 84 1014.5
20260504213514 59 201 5.2 0.0 0.00 0.00 0.00 82 1014.5
20260504213012 59 162 5.2 0.0 0.00 0.00 0.00 81 1014.5
20260504212512 59 193 5.2 0.0 0.00 0.00 0.00 81 1014.5
20260504212013 59 167 5.2 0.0 0.00 0.00 0.00 82 1014.5
20260504211511 59 173 5.2 0.0 0.00 0.00 0.00 82 1014.5
20260504211011 60 155 5.2 0.0 0.00 0.00 0.00 82 1014.5
20260504210515 60 199 4.3 0.0 0.00 0.00 0.00 81 1014.5
20260504210011 60 203 4.3 0.0 0.00 0.00 0.00 81 1014.5
20260504205510 60 128 4.3 0.0 0.00 0.00 0.00 82 1014.5
20260504205009 60 203 4.3 0.0 0.00 0.00 0.00 81 1014.5
20260504204515 60 183 3.5 0.0 0.00 0.00 0.00 82 1014.5
20260504204009 60 248 4.3 0.0 0.00 0.00 0.00 82 1014.6
20260504203510 60 225 4.3 0.0 0.00 0.00 0.00 80 1014.6
20260504203009 59 360 4.3 0.0 0.00 0.00 0.00 82 1014.6
20260504202509 60 197 5.2 0.0 0.00 0.00 0.00 81 1014.4
20260504202009 60 196 5.2 0.0 0.00 0.00 0.00 80 1014.4
20260504201508 60 186 4.3 0.0 0.00 0.00 0.00 79 1014.4
20260504201009 60 312 4.3 0.0 0.00 0.00 0.00 78 1014.5
20260504200508 61 205 3.5 0.0 0.00 0.00 0.00 78 1014.5
20260504200008 61 150 4.3 0.0 0.00 0.00 0.00 78 1014.5
20260504195507 61 212 4.3 0.0 0.00 0.00 0.00 78 1014.4
20260504195007 61 139 3.5 0.0 0.00 0.00 0.00 78 1014.4
20260504194508 61 200 4.3 0.0 0.00 0.00 0.00 76 1014.4
20260504194007 61 155 4.3 0.0 0.00 0.00 0.00 77 1014.4
20260504193507 61 238 4.3 0.0 0.00 0.00 0.00 71 1014.4
20260504193006 61 202 4.3 0.0 0.00 0.00 0.00 73 1014.4
20260504192506 61 169 4.3 0.0 0.00 0.00 0.00 75 1014.5
20260504192007 62 179 4.3 0.0 0.00 0.00 0.00 71 1014.5
20260504191510 62 140 4.3 0.0 0.00 0.00 0.00 73 1014.5
20260504191004 61 248 4.3 0.0 0.00 0.00 0.00 74 1014.5
20260504190504 61 196 4.3 0.0 0.00 0.00 0.00 72 1014.5
20260504190006 60 187 3.5 0.0 0.00 0.00 0.00 74 1014.5
20260504185500 60 273 3.5 0.0 0.00 0.00 0.00 73 1014.8
20260504185100 60 244 3.5 0.0 0.00 0.00 0.00 75 1014.8
20260504184602 60 227 3.5 0.0 0.00 0.00 0.00 75 1014.8
20260504184100 60 271 4.3 0.0 0.00 0.00 0.00 74 1014.6
20260504183559 60 191 3.5 0.0 0.00 0.00 0.00 76 1014.6
20260504183105 60 226 3.5 0.0 0.00 0.00 0.00 78 1014.6
20260504182558 60 282 3.5 0.0 0.00 0.00 0.00 77 1014.7
20260504182058 59 161 4.3 0.0 0.00 0.00 0.00 79 1014.7
20260504181604 60 234 3.5 0.0 0.00 0.00 0.00 75 1014.7
20260504181058 59 248 3.5 0.0 0.00 0.00 0.00 77 1014.6
20260504180559 59 231 3.5 0.0 0.00 0.00 0.00 78 1014.6
20260504180057 59 204 4.3 0.0 0.00 0.00 0.00 79 1014.6
20260504175556 58 269 5.2 0.0 0.00 0.00 0.00 77 1014.7
20260504175056 59 156 4.3 0.0 0.00 0.00 0.00 78 1014.7
20260504174555 59 192 2.6 0.0 0.00 0.00 0.00 79 1014.7
20260504174055 58 161 3.5 0.0 0.00 0.00 0.00 79 1014.6
20260504173554 58 217 3.5 0.0 0.00 0.00 0.00 79 1014.6
20260504173059 58 316 3.5 0.0 0.00 0.00 0.00 78 1014.6
20260504172554 58 277 3.5 0.0 0.00 0.00 0.00 77 1014.5
20260504172054 58 225 3.5 0.0 0.00 0.00 0.00 77 1014.5
20260504171557 58 210 3.5 0.0 0.00 0.00 0.00 77 1014.5
20260504171054 58 192 2.6 0.0 0.00 0.00 0.00 76 1014.3
20260504170553 58 225 2.6 0.0 0.00 0.00 0.00 75 1014.3
20260504151036 53 277 4.3 0.0 0.00 0.00 0.00 85 1013.7
20260504150536 53 319 5.2 0.0 0.00 0.00 0.00 85 1013.7
20260504141031 51 282 4.3 0.0 0.00 0.00 0.00 91 1013.5
20260504140634 51 311 4.3 0.0 0.00 0.00 0.00 91 1013.5